SCP
1 1 1 1 1 1 1 1 0 0 0 0 0 1 1 1 0 0 0 0 0 0 0 0 0 0 0 0 0 0 0 0 0 0 0 0 0 0
1 1 1 1 1 1 1 1 0 0 0 0 0 0 1 0 0 0 0 0 0 0 0 0 0 0 0 0 0 0 0 0 0 0 0 0 0 0
0 0 1 1 1 1 1 1 0 0 0 0 0 0 0 0 0 0 1 0 0 0 0 0 0 0 0 0 0 0 0 0 0 0 0 0 0 0
0 0 0 0 1 1 1 0 0 0 0 0 0 0 0 0 0 0 1 1 0 0 0 0 0 0 0 0 0 0 0 0 0 0 0 0 0 0
0 0 0 0 0 0 0 0 0 0 0 0 0 0 0 0 0 0 0 0 0 0 0 0 0 0 0 0 0 0 0 0 0 0 0 0 0 0
0 0 0 0 0 0 0 0 0 0 0 0 0 0 0 0 0 0 0 0 0 0 0 0 0 0 0 0 0 0 0 0 0 0 0 0 0 0
0 0 0 0 0 0 0 0 0 0 0 0 0 0 0 0 0 0 0 0 0 0 0 0 0 0 0 0 0 0 0 0 0 0 0 0 0 0
0 0 0 0 0 0 0 0 0 0 0 0 0 0 0 0 0 0 0 0 0 0 0 0 0 0 0 0 0 0 0 0 0 0 0 0 0 0
0 0 0 0 0 0 0 0 0 0 0 0 0 0 0 0 0 0 0 0 0 0 0 0 0 0 0 0 0 0 0 0 0 0 0 0 0 0
0 0 0 0 0 0 0 0 0 0 0 0 0 0 0 0 0 0 0 0 0 0 0 0 0 0 0 0 0 0 0 0 0 0 0 0 0 0
0 0 0 0 0 0 0 0 0 0 0 0 0 0 0 0 0 0 0 0 0 0 0 0 0 0 0 0 0 0 0 0 0 0 0 0 0 0
0 0 0 0 0 0 0 0 0 0 0 0 0 0 0 0 0 0 0 0 0 0 0 0 0 0 0 0 0 0 0 0 0 0 0 0 0 0
0 0 0 0 0 0 0 0 0 0 0 0 0 0 0 0 0 0 0 0 0 0 0 0 0 0 0 0 0 0 0 0 0 0 0 0 0 0
0 0 0 0 0 0 0 0 0 0 0 0 0 0 0 0 0 0 0 0 0 0 0 0 0 0 0 0 0 0 0 0 0 0 0 0 0 0
0 0 0 0 0 0 0 0 0 0 0 0 0 0 0 0 0 0 0 0 0 0 0 0 0 0 0 0 0 0 0 0 0 0 0 0 0 0
0 0 0 0 0 0 0 0 0 0 0 0 0 0 0 0 0 0 0 0 0 0 0 0 0 0 0 0 0 0 0 0 0 0 0 0 0 0
0 0 0 0 0 0 0 0 0 0 0 0 0 0 0 0 0 0 0 0 0 0 0 0 0 0 0 0 0 0 0 0 0 0 0 0 0 0
0 0 0 0 0 0 0 0 0 0 0 0 0 0 0 0 0 0 0 0 0 0 0 0 0 0 0 0 0 0 0 0 0 0 0 0 0 0
0 0 0 0 0 0 0 0 0 0 0 0 0 0 0 0 0 0 0 0 0 0 0 0 0 0 0 0 0 0 0 0 0 0 0 0 0 0
0 0 0 0 0 0 0 0 0 0 0 0 0 0 0 0 0 0 0 0 0 0 0 0 0 0 0 0 0 0 0 0 0 0 0 0 0 0
0 0 0 0 0 0 0 0 0 0 0 0 0 0 0 0 0 0 0 0 0 0 0 0 0 0 0 0 0 0 0 0 0 0 0 0 0 0
0 0 0 0 0 0 0 0 0 0 0 0 0 0 0 0 0 0 0 0 0 0 0 0 0 0 0 0 0 0 0 0 0 0 0 0 0 0
0 0 0 0 0 0 0 0 0 0 0 0 0 0 0 0 0 0 0 0 0 0 0 0 0 0 0 0 0 0 0 0 0 0 0 0 0 0
Wind_Speed
8 8 8 7 7 7 7 7 7 7 8 8 6 8 8 7 9 10 11 15 15 14 13 12 12 11 11 10 9 9 9 9 9 9 8 7 6 5
5 7 7 6 6 7 7 7 8 7 6 5 5 5 7 7 9 11 10 14 15 15 14 14 13 12 11 10 10 9 9 9 9 9 8 7 6 6
5 6 7 7 6 6 6 7 7 7 8 5 3 4 7 8 7 8 8 9 10 15 15 14 14 13 12 11 11 10 9 9 9 9 9 8 7 6
5 5 5 5 7 6 6 7 7 9 8 8 6 6 7 8 8 8 7 7 8 14 15 15 14 14 13 12 12 11 11 10 9 9 9 8 8 8
5 5 5 5 6 5 6 7 6 7 7 7 6 5 4 6 7 7 7 6 7 10 14 14 14 14 13 12 12 12 11 11 10 9 8 8 8 8
5 5 5 5 5 6 6 6 6 7 7 7 6 6 5 7 7 7 6 5 6 7 8 10 13 14 14 13 13 13 12 11 10 10 9 8 8 7
5 4 4 5 5 5 5 5 6 6 6 6 6 6 6 7 8 6 7 6 5 5 7 7 8 7 9 12 13 14 13 12 11 11 9 8 8 9
5 4 4 5 5 6 7 7 7 7 7 7 6 7 8 8 7 8 8 8 5 5 6 6 6 6 6 6 11 13 13 13 12 11 11 10 10 9
5 5 4 4 5 5 5 8 9 9 9 7 8 8 8 9 10 10 9 8 5 7 7 5 5 6 5 7 13 13 13 13 13 12 12 11 10 10
5 5 5 5 3 4 5 5 5 6 8 8 7 7 8 8 10 9 9 9 8 6 5 5 4 5 5 7 12 13 12 12 13 12 12 11 10 9
5 5 5 5 3 4 5 4 4 3 3 4 4 6 8 10 10 9 10 10 7 4 3 4 5 5 4 5 8 11 11 11 11 12 12 11 10 10
5 4 3 5 6 5 4 3 3 2 3 6 6 8 8 11 12 10 10 10 8 5 4 5 6 5 4 3 5 7 8 9 10 10 11 11 10 7
4 4 3 5 5 4 4 2 1 1 3 5 5 6 6 7 7 6 7 8 8 5 7 6 7 5 5 5 4 5 6 7 7 8 9 10 8 5
4 4 4 6 5 4 2 1 2 2 3 4 5 5 5 5 5 6 7 5 4 6 10 8 7 6 7 6 5 5 5 6 7 7 8 10 7 3
3 5 5 5 3 1 1 2 2 2 3 4 5 5 4 6 7 7 9 9 9 8 7 6 7 7 5 6 7 7 6 6 6 7 7 8 8 7
3 2 1 2 1 2 2 1 1 2 3 4 5 5 5 6 6 7 7 8 7 6 5 5 7 8 5 6 6 8 7 7 8 7 7 7 7 7
5 3 1 0 0 1 2 2 2 3 3 4 5 6 6 6 6 6 7 6 6 6 6 5 5 4 3 5 6 7 7 7 7 8 7 7 7 7
6 3 1 1 1 1 2 2 3 3 4 4 5 5 6 6 6 6 6 6 7 7 7 7 7 6 4 2 1 6 7 7 7 8 8 7 8 8
5 3 2 1 1 2 2 2 3 3 4 5 5 5 6 6 6 6 6 6 6 6 6 7 7 7 7 6 5 4 6 7 7 7 8 7 7 6
4 3 3 2 3 3 3 3 3 4 4 5 5 6 6 6 6 6 6 7 7 7 6 6 6 6 5 4 5 6 6 7 7 8 8 7 6 2
5 5 4 4 4 4 4 4 4 4 5 5 6 6 6 7 7 7 7 8 7 7 7 7 4 2 2 2 4 5 6 5 3 5 6 7 6 7
6 6 5 5 5 4 5 5 5 5 6 6 6 6 6 7 7 8 8 8 7 7 7 6 7 5 5 5 5 6 6 7 4 3 5 6 5 5
8 7 7 7 6 6 6 7 8 7 7 7 7 7 7 7 7 7 8 8 7 7 8 7 7 6 6 5 5 4 6 7 6 6 7 11 12 10
Wind_Direction
249 243 235 231 224 222 220 213 210 214 217 213 206 211 211 212 181 196 204 183 187 188 185 181 178 178 181 181 182 183 178 174 170 169 174 174 170 165
249 243 236 233 225 220 218 219 219 222 226 211 202 196 204 206 194 204 207 171 182 183 182 179 175 175 177 177 176 172 170 166 163 164 163 162 163 160
263 251 241 234 226 221 219 220 220 220 229 223 202 196 199 205 190 199 194 183 181 180 179 176 173 170 168 167 166 162 160 158 157 157 156 155 154 149
285 266 254 238 229 223 219 221 220 218 221 218 202 194 201 198 190 188 187 188 181 173 172 168 165 161 160 160 159 157 155 152 152 152 152 154 153 149
290 279 267 252 239 230 225 224 219 219 219 218 206 193 191 185 181 181 178 176 176 165 164 162 159 156 155 155 154 152 150 149 150 148 148 149 148 148
295 286 277 262 251 240 232 229 223 217 213 210 199 185 184 178 176 173 169 165 164 160 157 157 154 152 152 152 152 151 148 146 146 144 142 142 142 144
299 290 283 281 281 266 249 232 225 218 211 207 198 189 185 178 181 173 164 148 148 149 143 148 150 152 154 153 152 150 148 146 144 142 142 142 141 139
305 298 283 255 261 260 254 242 234 224 213 207 204 197 189 182 173 168 159 154 154 157 144 138 143 144 147 148 147 149 148 147 145 144 142 139 137 137
310 305 298 286 270 267 248 233 229 223 221 217 207 201 190 180 173 173 171 162 143 151 140 131 137 132 131 133 143 145 147 147 147 146 144 142 141 140
312 308 298 294 295 299 279 252 232 216 216 218 210 199 189 180 177 170 155 131 113 129 129 120 129 122 123 131 142 144 144 146 148 148 146 143 140 140
325 324 318 312 337 309 277 254 232 211 194 198 186 174 168 164 159 150 148 145 137 131 126 118 129 115 114 125 135 137 138 142 146 149 149 146 144 150
323 323 345 334 329 308 274 245 222 203 172 159 156 155 160 157 159 162 159 154 142 135 149 131 140 135 124 122 140 150 145 141 144 148 150 152 160 181
322 328 348 349 327 318 295 264 218 187 161 155 152 149 148 153 159 158 157 157 153 141 155 144 149 153 139 139 148 159 159 157 159 156 158 164 181 221
322 330 347 350 333 326 319 104 136 157 146 141 141 140 141 142 140 135 126 113 108 132 152 151 149 162 148 146 148 158 168 173 174 173 172 169 186 207
327 339 336 335 316 304 88 120 156 156 144 141 138 131 124 124 121 114 107 99 94 108 136 149 146 156 162 156 153 159 167 180 188 185 181 184 191 193
314 321 313 351 5 66 121 148 148 139 144 137 127 118 117 125 130 131 127 122 111 104 104 132 150 157 158 153 156 164 173 175 182 192 191 198 204 205
320 295 292 256 139 126 130 121 123 132 130 131 132 134 134 133 134 137 141 142 138 139 134 127 126 125 145 160 167 173 176 179 178 185 193 203 209 212
296 280 276 232 189 159 146 137 138 142 144 145 144 143 146 145 142 148 155 151 146 147 147 148 148 143 143 125 219 179 180 182 178 183 198 210 216 212
265 264 264 235 202 179 163 157 152 151 153 154 154 152 153 152 151 154 156 153 151 151 154 161 175 180 183 180 170 224 196 180 179 188 203 215 226 220
251 253 245 232 213 190 178 174 164 159 162 160 159 159 161 161 162 164 166 164 157 155 158 173 188 198 206 193 157 169 214 195 189 198 203 212 228 225
236 236 232 225 215 200 187 186 180 174 173 168 166 168 169 171 171 173 168 160 166 168 173 180 170 157 140 139 159 164 171 204 257 223 210 207 219 227
238 231 226 223 217 208 196 193 191 185 183 183 177 177 177 177 176 176 171 171 181 180 175 154 150 174 195 206 207 183 170 175 188 242 274 261 240 241
232 229 225 220 217 212 208 203 201 196 192 190 185 184 183 183 181 181 181 182 182 176 165 162 170 187 202 211 216 206 193 192 195 202 220 220 231 249